Temperature
18 18 18 18 17 17 17 17 17 17 17 17 17 18 18 18 18 18 18 18 18 18 18 18 19 19 19 19 18 18 18 17 17 18 18 18 18 18 18 18 17 17 17
17 17 17 17 17 17 17 17 17 17 17 17 17 18 18 18 18 18 18 18 18 18 18 18 18 18 18 19 18 18 18 18 18 18 18 18 18 18 18 18 18 17 17
17 17 17 17 17 17 16 16 16 16 17 17 17 17 18 18 18 18 18 18 17 17 17 18 18 18 18 18 18 18 18 18 18 18 18 18 18 18 18 18 18 17 17
17 17 17 17 17 17 16 16 16 16 16 16 17 17 17 17 18 18 17 17 17 17 17 17 17 18 18 18 18 18 18 18 18 18 18 17 17 17 17 17 17 17 17
17 17 17 17 17 17 17 16 16 16 16 16 16 17 17 17 17 18 18 17 17 17 17 17 17 17 17 18 18 18 18 18 18 18 18 17 17 17 17 17 17 17 17
16 16 16 17 17 17 17 17 16 16 16 16 16 17 17 17 17 18 17 17 17 17 17 17 17 17 17 17 17 17 17 18 18 18 18 17 17 17 17 17 17 17 17
16 16 16 16 16 16 16 16 16 16 16 16 16 16 17 17 18 18 18 18 18 18 17 17 17 17 17 17 17 17 17 17 18 18 18 17 17 17 17 17 17 17 17
16 15 15 16 16 16 16 16 16 16 16 16 16 16 17 18 18 18 18 18 18 18 17 17 17 17 17 17 17 17 17 17 18 18 18 17 17 17 17 17 17 17 17
15 15 15 15 16 16 16 16 16 16 16 16 16 16 17 18 18 19 18 18 18 18 18 18 18 17 17 17 17 17 17 17 17 18 18 17 17 17 17 17 17 17 17
15 15 15 15 15 15 15 15 15 16 16 16 16 16 17 17 17 18 18 18 18 18 18 18 18 18 17 17 17 17 17 17 17 17 17 17 17 17 17 17 17 17 17
14 15 15 15 15 15 15 15 15 15 15 16 16 16 16 17 17 17 17 18 18 18 17 18 18 18 17 17 17 17 17 17 17 17 17 17 17 17 17 17 17 17 17
14 14 14 14 14 14 14 15 15 15 15 15 16 16 16 16 17 17 17 18 18 18 17 17 17 17 17 17 17 17 17 17 17 17 17 17 17 17 17 17 17 17 17
13 14 14 14 13 14 14 14 14 14 14 15 15 15 16 16 17 17 17 18 18 18 17 17 17 17 17 17 17 17 17 17 17 17 17 17 17 17 17 17 17 16 16
12 12 13 13 13 13 13 13 13 14 14 14 14 14 15 16 16 17 17 17 18 18 17 17 17 17 17 17 16 16 17 17 17 17 17 17 17 17 17 16 16 16 16
11 11 12 12 12 12 12 12 13 13 13 13 14 14 14 15 15 16 16 17 17 17 17 17 17 17 17 16 16 16 16 16 16 17 17 17 17 17 17 17 16 16 16
10 10 10 11 11 11 12 12 12 12 12 13 13 14 14 14 14 15 16 16 16 17 17 17 17 17 16 16 16 16 16 16 16 16 17 17 17 17 17 17 16 16 16
9 9 9 9 10 10 11 11 11 12 12 12 12 13 13 13 14 14 15 15 16 16 16 16 16 16 16 16 15 15 15 15 16 16 16 17 17 17 17 16 16 16 16
8 8 8 8 9 9 10 10 11 11 11 12 12 12 12 13 13 14 14 15 15 16 16 16 16 15 15 15 15 15 14 14 15 15 16 16 16 16 16 16 16 16 16
8 8 8 8 8 8 9 9 10 10 11 11 11 12 12 12 12 13 13 14 14 15 15 15 16 15 15 15 14 14 14 14 14 14 15 15 16 16 16 16 16 16 16
7 7 7 7 7 7 8 8 9 9 10 11 11 11 11 12 12 12 12 13 13 14 14 15 15 15 15 14 14 14 13 13 13 13 13 13 14 15 15 15 15 15 15
7 7 7 7 7 7 7 8 8 8 9 10 10 11 11 11 11 12 12 12 13 13 13 14 14 15 15 14 14 14 13 12 12 12 12 12 13 13 14 14 14 15 15
7 7 7 6 6 6 7 7 7 8 8 9 9 10 10 11 11 11 11 12 12 12 12 13 14 14 15 15 14 14 13 12 11 11 12 12 12 12 12 13 13 13 13
7 7 6 6 6 6 6 6 7 7 7 8 9 9 10 10 11 11 11 11 11 11 11 12 13 14 14 14 14 13 13 13 12 12 12 12 12 12 12 12 12 12 12
7 7 6 6 6 6 6 6 6 6 7 7 8 9 9 10 10 11 11 11 11 11 11 11 12 13 14 14 14 14 13 12 12 11 11 11 11 11 12 12 11 11 12
7 7 6 6 6 6 6 6 6 6 6 7 8 8 9 9 10 10 10 10 10 10 10 11 11 12 13 13 14 13 12 12 11 11 11 11 11 11 11 11 11 11 11
7 7 6 6 6 6 6 6 6 6 6 6 7 8 8 9 9 10 10 10 10 10 10 10 11 11 11 12 13 13 13 13 12 11 11 11 11 11 10 10 10 10 10
Wind_Speed
6 6 5 4 5 7 5 6 6 9 10 8 8 8 9 10 11 9 7 18 22 22 22 21 21 21 20 19 20 21 21 21 22 22 22 21 19 18 17 17 17 16 15
4 5 5 6 5 7 7 5 7 8 8 8 9 9 8 8 9 10 8 12 19 22 22 23 23 23 22 21 21 22 23 22 22 23 23 23 22 21 19 19 19 18 18
3 3 4 5 4 6 6 6 6 7 9 9 10 11 8 7 6 9 10 10 14 20 24 25 25 24 24 23 23 24 24 24 24 24 24 25 24 24 23 21 21 21 20
3 2 3 4 3 4 4 5 6 8 9 8 8 9 8 7 9 8 9 10 12 14 20 26 26 26 26 26 25 25 26 26 26 25 25 25 25 25 25 24 23 22 22
3 3 4 4 3 4 5 6 5 6 7 8 8 9 9 9 9 9 9 10 13 15 16 21 26 27 27 27 27 27 27 27 27 27 26 25 25 26 25 25 25 24 24
4 3 4 5 4 4 5 5 6 5 4 6 9 9 8 9 8 9 10 10 11 15 16 16 19 22 27 28 28 27 27 28 28 28 27 27 26 26 27 27 27 26 25
6 5 5 4 5 6 7 7 6 5 5 6 6 7 8 10 10 9 9 9 11 11 13 15 16 16 17 26 27 28 28 28 28 28 28 28 28 27 28 28 28 27 27
5 7 5 5 5 6 7 8 6 4 5 6 6 5 4 5 7 11 9 9 9 7 10 13 15 15 14 15 20 26 27 27 27 27 27 28 28 28 28 28 28 28 27
4 4 5 6 6 5 6 7 7 7 6 6 5 4 3 3 3 4 8 7 7 5 6 7 9 12 14 13 16 24 28 26 26 25 25 26 27 27 27 27 27 27 27
6 4 4 5 6 6 6 6 6 6 7 6 5 4 4 1 2 3 2 5 7 6 5 4 6 7 11 10 12 19 26 25 24 23 23 24 25 26 26 27 26 26 27
8 7 5 3 3 5 5 6 6 5 6 7 6 4 4 4 4 3 3 1 3 5 5 4 3 4 7 9 9 15 23 24 23 21 20 21 22 24 25 25 25 26 26
6 6 5 4 3 3 4 5 6 7 6 7 7 5 4 3 4 4 5 4 4 5 6 5 4 3 3 5 7 12 20 20 19 18 17 17 19 21 23 24 25 25 25
8 8 7 2 3 3 4 5 6 6 6 7 7 7 6 5 3 3 3 4 3 4 5 5 5 4 4 7 9 11 12 13 13 13 14 14 15 17 20 23 24 25 25
9 9 8 6 5 6 6 6 5 6 5 5 7 7 7 6 5 3 3 3 3 2 4 5 4 5 4 8 11 11 9 9 10 11 12 13 14 15 16 18 20 22 23
11 11 10 9 8 8 8 7 6 7 6 5 5 6 6 6 6 5 4 3 3 4 4 4 3 6 6 8 11 9 10 8 7 8 10 12 13 13 14 15 16 18 19
9 10 11 10 10 9 9 8 8 8 8 7 6 6 6 6 6 6 5 4 2 4 4 3 4 6 7 8 9 10 11 10 5 4 5 7 9 11 12 13 14 15 16
9 10 10 11 11 11 10 10 10 10 10 9 8 7 7 7 6 7 6 5 3 2 3 3 3 7 8 9 8 9 10 8 7 6 5 5 5 6 7 8 9 10 11
10 10 10 11 12 12 11 11 12 13 12 11 10 9 8 7 8 7 6 6 5 4 3 4 4 7 7 10 9 8 6 9 8 9 10 10 10 9 8 7 7 8 8
10 11 10 10 11 11 12 12 12 12 12 12 12 11 10 9 9 8 8 7 5 5 4 3 4 6 6 9 10 9 9 7 7 9 11 13 13 13 13 12 12 12 12
11 11 10 11 11 12 12 13 13 13 13 12 12 12 11 11 10 9 8 8 7 6 5 5 5 6 7 10 10 9 7 6 5 5 8 11 15 16 15 15 14 15 15
13 11 11 11 12 12 13 13 11 14 13 13 13 12 13 13 14 11 9 8 8 7 6 7 6 6 6 10 9 7 8 7 4 4 5 5 7 8 10 13 14 16 18
11 11 12 13 13 15 15 13 11 10 10 11 12 13 14 12 14 15 13 10 10 10 9 8 8 7 9 9 9 10 10 8 4 3 4 4 5 7 6 9 14 18 20
12 12 12 13 13 14 16 16 15 11 11 10 12 11 15 16 15 12 12 11 9 7 7 7 8 7 7 8 10 12 11 10 5 6 5 5 7 8 7 11 15 18 20
12 12 12 13 13 15 16 15 15 13 12 12 12 11 12 13 12 12 13 12 10 9 8 5 5 4 3 3 6 9 11 9 9 5 4 5 6 7 8 10 13 17 19
12 12 12 12 12 13 15 15 14 11 10 11 12 11 12 13 14 14 13 12 11 10 11 10 7 5 3 1 3 8 12 13 9 4 3 4 7 7 7 6 10 14 17
12 12 12 11 12 12 13 13 13 9 9 9 9 9 12 13 14 15 13 12 11 10 10 11 8 7 5 5 6 9 12 14 10 5 4 5 9 6 5 4 5 9 11
Wind_Direction
240 251 269 274 258 249 243 238 243 240 236 241 240 228 214 224 241 245 202 187 189 191 194 198 202 207 206 204 207 209 209 209 208 207 207 208 209 207 204 201 199 199 198
238 240 251 258 258 260 266 268 266 261 251 244 240 233 226 222 233 244 227 200 201 202 203 205 207 210 209 207 208 209 210 210 211 211 210 210 210 210 208 206 203 202 202
234 227 232 242 241 254 268 276 274 270 259 246 242 238 237 229 221 231 231 220 215 214 212 212 212 212 212 212 211 211 211 211 212 212 213 212 212 212 211 208 206 205 205
240 232 234 236 220 230 235 249 254 261 257 252 247 242 237 233 227 221 222 225 227 230 224 220 217 214 214 214 214 213 213 214 214 214 214 213 213 214 214 212 209 208 207
282 250 236 231 212 218 229 244 244 249 262 260 253 241 234 231 224 223 217 221 222 225 225 223 222 218 216 218 217 217 216 216 215 215 214 214 214 215 215 216 213 210 209
320 289 259 236 218 222 228 230 243 243 255 268 269 263 237 224 215 215 217 220 221 221 215 214 216 219 217 217 218 218 219 218 216 216 215 215 214 214 214 216 216 214 211
339 306 293 267 235 231 233 232 227 234 236 243 253 264 254 228 212 211 210 216 219 217 208 203 199 200 209 216 216 217 218 219 218 217 216 215 215 214 213 213 214 215 214
333 325 330 300 275 251 241 236 228 230 240 233 225 247 265 251 216 211 201 209 219 212 209 195 189 190 194 199 214 217 219 220 220 219 216 215 214 212 211 211 212 213 214
303 302 316 317 310 289 259 242 230 226 237 252 233 213 247 279 306 206 194 200 196 202 209 196 190 187 192 187 200 213 217 217 218 218 216 214 213 210 209 209 210 211 213
286 273 279 313 325 315 304 278 245 234 233 244 252 229 235 291 297 343 235 201 185 191 215 212 200 181 187 195 198 198 208 213 215 217 215 212 211 210 210 210 211 212 213
279 256 229 239 303 311 331 323 314 278 248 243 246 240 230 230 221 230 264 259 187 182 196 209 196 174 182 193 195 189 195 203 208 212 212 210 209 210 212 213 214 215 216
294 295 263 198 232 295 330 323 313 297 279 266 261 257 237 215 219 224 231 226 205 205 183 186 184 188 188 171 173 177 185 193 200 205 208 210 211 211 213 216 218 219 220
318 313 311 251 236 261 282 284 288 288 284 276 269 263 261 255 247 243 238 239 211 193 169 174 182 186 163 126 119 136 157 173 187 198 206 212 214 216 217 217 219 222 223
298 301 315 308 277 256 257 262 276 278 271 267 270 270 268 269 272 265 256 256 249 209 178 184 170 161 140 122 136 140 139 160 180 196 205 211 215 218 220 220 221 223 224
311 317 320 309 295 277 259 252 254 266 271 262 259 258 259 264 271 270 269 258 221 219 217 196 159 145 130 121 147 144 133 142 162 188 201 209 213 217 220 222 222 223 224
300 304 303 297 291 284 271 254 247 250 245 240 240 240 240 247 258 267 268 273 258 209 211 205 177 157 149 142 142 122 118 121 111 144 178 197 206 211 216 221 224 224 224
309 304 301 299 294 287 279 267 254 250 251 247 238 233 229 229 238 249 255 250 257 255 214 198 167 154 139 131 131 128 140 126 96 87 107 131 157 176 189 200 208 209 208
305 303 300 298 294 289 283 276 266 255 243 241 237 230 228 222 221 233 243 243 236 225 217 202 161 157 151 142 141 137 123 105 96 84 92 98 106 114 123 135 147 155 162
297 297 294 293 292 292 289 284 277 268 257 244 237 229 222 215 214 216 223 230 234 230 215 208 185 169 162 150 136 120 107 106 102 99 90 89 96 100 103 106 112 118 123
294 290 289 288 286 284 284 283 278 272 265 256 244 235 226 216 211 208 214 217 216 221 215 212 201 177 167 155 142 135 129 124 115 102 89 93 94 90 93 98 104 111 116
294 294 292 288 284 281 275 271 273 273 271 265 255 243 234 221 209 204 208 209 207 210 211 209 205 190 171 163 162 154 143 128 109 126 120 116 105 93 86 88 97 107 112
294 290 286 283 280 279 282 288 287 285 283 277 267 254 245 233 217 202 203 200 201 208 209 206 205 197 188 178 169 156 149 148 143 155 134 119 110 99 87 85 104 110 112
297 291 286 281 277 274 272 269 267 267 266 265 260 253 245 235 215 202 195 188 193 202 207 203 205 199 187 183 174 161 163 161 140 154 131 100 90 84 80 91 107 113 115
294 290 284 281 277 274 268 259 255 258 258 255 252 246 241 245 229 203 196 198 201 200 196 191 191 171 138 136 169 169 156 130 113 115 115 108 104 96 90 88 103 115 118
293 291 288 281 278 275 268 258 249 259 254 253 249 239 233 234 235 207 195 193 196 199 200 193 179 161 144 151 165 153 148 143 140 136 118 115 123 107 94 93 100 113 122
293 292 289 286 283 278 269 256 246 252 249 249 245 237 232 230 225 201 194 191 194 196 185 185 186 187 199 214 200 173 161 156 147 146 162 130 146 132 111 109 121 124 120
Height
1515 1516 1517 1517 1517 1518 1518 1518 1519 1520 1521 1521 1522 1524 1524 1526 1528 1531 1531 1532 1535 1537 1539 1542 1544 1546 1548 1551 1554 1556 1559 1562 1564 1567 1570 1572 1574 1577 1579 1581 1583 1586 1588
1511 1511 1512 1513 1513 1513 1513 1513 1513 1513 1515 1516 1517 1518 1520 1521 1522 1525 1527 1528 1529 1531 1533 1536 1538 1541 1543 1545 1549 1551 1554 1557 1560 1563 1565 1568 1571 1573 1576 1578 1581 1583 1586
1507 1507 1507 1508 1508 1508 1508 1508 1508 1508 1509 1510 1511 1513 1514 1515 1516 1518 1520 1522 1523 1525 1527 1529 1532 1534 1537 1540 1543 1546 1549 1551 1555 1558 1561 1564 1566 1569 1572 1575 1578 1580 1583
1504 1504 1503 1503 1503 1503 1503 1503 1504 1503 1504 1505 1506 1508 1508 1510 1511 1512 1513 1515 1517 1518 1520 1523 1525 1528 1531 1534 1537 1540 1543 1546 1550 1553 1556 1559 1562 1565 1568 1571 1574 1577 1579
1502 1501 1500 1499 1499 1499 1498 1498 1499 1499 1500 1501 1502 1503 1503 1504 1505 1506 1506 1507 1509 1511 1514 1517 1519 1522 1525 1528 1531 1535 1538 1541 1544 1547 1551 1554 1557 1560 1563 1566 1569 1572 1575
1499 1498 1497 1496 1495 1495 1494 1494 1494 1495 1496 1498 1498 1499 1499 1499 1499 1500 1500 1501 1503 1506 1508 1510 1512 1516 1519 1522 1526 1529 1533 1536 1539 1542 1545 1548 1552 1555 1558 1561 1564 1567 1571
1496 1495 1493 1493 1492 1491 1491 1491 1491 1492 1493 1494 1495 1495 1495 1495 1494 1495 1496 1497 1498 1500 1503 1505 1508 1512 1514 1517 1520 1523 1527 1530 1533 1536 1539 1543 1546 1550 1553 1557 1560 1563 1566
1493 1492 1490 1489 1488 1488 1488 1488 1488 1489 1489 1491 1492 1493 1492 1492 1490 1490 1491 1493 1494 1497 1499 1501 1504 1507 1510 1513 1516 1518 1521 1524 1527 1530 1533 1537 1541 1544 1548 1551 1555 1558 1561
1490 1489 1487 1486 1484 1484 1484 1485 1486 1486 1486 1487 1488 1489 1489 1488 1487 1487 1488 1490 1492 1494 1496 1499 1501 1504 1507 1510 1512 1514 1517 1519 1522 1525 1528 1531 1535 1539 1543 1546 1550 1553 1556
1487 1486 1484 1483 1481 1481 1480 1481 1481 1482 1483 1483 1484 1485 1486 1486 1487 1486 1487 1488 1489 1491 1494 1496 1499 1501 1504 1506 1508 1510 1513 1515 1517 1520 1523 1526 1530 1534 1537 1541 1544 1548 1551
1483 1482 1481 1479 1478 1477 1477 1476 1477 1478 1479 1480 1481 1481 1482 1483 1484 1485 1486 1487 1487 1489 1490 1493 1496 1498 1500 1503 1505 1506 1509 1511 1513 1516 1518 1521 1525 1528 1532 1535 1539 1542 1546
1479 1479 1478 1476 1475 1475 1474 1473 1473 1473 1474 1475 1476 1477 1478 1479 1480 1481 1483 1484 1485 1486 1487 1490 1493 1495 1497 1499 1501 1503 1505 1508 1510 1512 1514 1517 1520 1523 1526 1530 1533 1536 1540
1475 1474 1474 1472 1471 1471 1471 1470 1469 1469 1468 1469 1470 1471 1474 1475 1476 1478 1480 1481 1482 1483 1485 1487 1489 1492 1494 1496 1497 1500 1502 1504 1506 1508 1510 1513 1515 1518 1521 1524 1527 1531 1534
1470 1470 1469 1468 1467 1466 1466 1466 1466 1465 1465 1464 1464 1466 1468 1470 1472 1473 1475 1477 1478 1480 1481 1483 1486 1488 1491 1492 1494 1497 1499 1501 1503 1505 1507 1509 1511 1514 1516 1519 1522 1525 1529
1465 1463 1462 1461 1461 1461 1461 1461 1460 1460 1460 1460 1460 1460 1461 1463 1466 1468 1470 1472 1475 1476 1478 1480 1482 1485 1487 1489 1491 1493 1495 1497 1499 1501 1503 1505 1508 1510 1513 1515 1518 1521 1524
1459 1457 1456 1455 1455 1455 1455 1455 1455 1455 1455 1455 1455 1455 1455 1457 1459 1462 1464 1467 1469 1472 1474 1476 1479 1481 1484 1485 1488 1489 1491 1493 1495 1496 1498 1501 1503 1506 1508 1511 1514 1516 1519
1453 1451 1449 1448 1448 1448 1448 1448 1448 1449 1449 1449 1449 1449 1450 1451 1453 1455 1458 1461 1464 1467 1469 1472 1475 1478 1480 1482 1484 1487 1489 1489 1491 1492 1494 1496 1499 1502 1504 1507 1509 1512 1514
1447 1445 1443 1441 1440 1440 1440 1440 1441 1442 1442 1443 1443 1444 1444 1445 1446 1448 1451 1454 1457 1461 1465 1468 1471 1474 1477 1479 1482 1484 1485 1486 1487 1489 1490 1492 1495 1498 1501 1503 1506 1508 1511
1441 1439 1437 1435 1433 1432 1432 1431 1432 1433 1434 1435 1436 1437 1438 1439 1439 1441 1444 1447 1450 1454 1458 1463 1467 1470 1473 1477 1479 1481 1482 1484 1485 1486 1487 1489 1491 1494 1497 1500 1503 1505 1508
1435 1433 1430 1428 1426 1425 1424 1423 1423 1424 1425 1426 1428 1430 1431 1432 1433 1435 1436 1439 1443 1447 1452 1457 1461 1465 1469 1473 1475 1477 1480 1482 1483 1484 1485 1487 1489 1492 1495 1498 1500 1503 1505
1430 1427 1424 1421 1419 1417 1416 1415 1415 1415 1416 1417 1419 1421 1423 1425 1427 1429 1430 1433 1436 1439 1444 1450 1454 1460 1464 1467 1470 1473 1476 1479 1481 1483 1485 1487 1489 1491 1493 1496 1498 1501 1504
1424 1420 1417 1413 1411 1409 1408 1407 1406 1406 1406 1407 1409 1412 1415 1418 1420 1422 1424 1427 1430 1433 1437 1442 1447 1452 1456 1461 1466 1469 1472 1475 1479 1482 1484 1487 1489 1491 1493 1496 1498 1501 1503
1417 1413 1409 1406 1402 1400 1398 1397 1396 1396 1396 1397 1400 1403 1408 1411 1413 1416 1418 1421 1423 1426 1431 1435 1441 1445 1452 1456 1461 1464 1468 1472 1475 1479 1483 1486 1488 1491 1494 1496 1499 1502 1504
1410 1406 1402 1398 1394 1392 1390 1388 1387 1387 1387 1388 1391 1395 1399 1403 1406 1409 1412 1414 1417 1420 1424 1429 1435 1440 1446 1451 1455 1460 1464 1469 1474 1478 1481 1484 1487 1490 1493 1496 1499 1502 1504
1403 1399 1395 1391 1387 1383 1381 1380 1379 1378 1378 1380 1383 1387 1391 1395 1399 1403 1406 1409 1411 1415 1419 1424 1430 1435 1440 1445 1450 1455 1459 1464 1469 1474 1478 1481 1485 1489 1493 1496 1499 1502 1505
1397 1393 1388 1384 1380 1376 1373 1372 1371 1371 1372 1373 1376 1380 1385 1389 1393 1397 1401 1404 1407 1410 1414 1418 1424 1429 1435 1440 1445 1449 1453 1459 1463 1470 1474 1478 1481 1486 1491 1495 1498 1501 1504